Temp
-11 -11 -11 -12 -12 -13 -13 -13 -13 -13 -13 -13 -13 -13 -13 -13 -13 -13 -14 -14 -14 -14 -15 -15 -16 -17 -17 -17 -17 -17 -17 -16 -17 -17 -17 -17 -17 -17 -17 -17 -17 -17 -17
-11 -12 -12 -12 -12 -13 -13 -13 -14 -14 -14 -14 -14 -14 -14 -14 -14 -14 -14 -14 -15 -15 -15 -16 -17 -17 -17 -17 -17 -17 -17 -17 -17 -17 -17 -17 -16 -17 -17 -17 -17 -17 -17
-12 -12 -13 -13 -13 -13 -13 -14 -14 -14 -14 -14 -15 -15 -15 -15 -15 -15 -15 -15 -15 -15 -16 -16 -16 -17 -17 -17 -17 -17 -17 -17 -17 -17 -17 -17 -17 -17 -17 -17 -17 -17 -17
-13 -13 -13 -13 -13 -14 -14 -14 -15 -15 -15 -15 -15 -16 -16 -16 -16 -15 -15 -15 -16 -16 -16 -16 -17 -17 -17 -17 -17 -18 -17 -17 -17 -17 -17 -16 -16 -16 -17 -17 -17 -17 -17
-13 -13 -14 -14 -14 -14 -15 -15 -15 -15 -16 -16 -16 -16 -16 -17 -16 -16 -16 -16 -16 -17 -17 -17 -17 -17 -18 -17 -17 -17 -18 -18 -17 -17 -17 -17 -17 -17 -16 -16 -17 -17 -17
-13 -14 -14 -15 -15 -15 -15 -15 -16 -16 -16 -16 -16 -17 -17 -17 -17 -17 -17 -17 -17 -17 -17 -18 -18 -18 -18 -18 -18 -18 -18 -18 -18 -18 -18 -18 -18 -18 -18 -17 -17 -17 -17
-14 -14 -14 -15 -16 -16 -16 -16 -16 -16 -16 -17 -17 -17 -17 -17 -17 -17 -17 -17 -17 -18 -18 -18 -18 -18 -18 -18 -18 -18 -18 -18 -19 -19 -19 -19 -19 -18 -18 -18 -18 -18 -18
-15 -15 -15 -16 -16 -16 -16 -16 -17 -16 -16 -17 -18 -18 -18 -17 -18 -18 -18 -18 -18 -18 -19 -19 -19 -19 -19 -19 -19 -19 -19 -19 -19 -20 -20 -20 -20 -20 -20 -19 -19 -19 -19
-15 -15 -16 -16 -16 -16 -16 -17 -17 -17 -17 -17 -18 -17 -18 -18 -18 -18 -19 -19 -19 -19 -20 -20 -20 -20 -19 -19 -20 -20 -20 -20 -19 -20 -20 -20 -20 -20 -20 -20 -20 -20 -19
-15 -16 -16 -16 -16 -16 -17 -17 -17 -17 -17 -17 -17 -18 -18 -18 -19 -19 -19 -19 -20 -20 -20 -20 -20 -21 -20 -20 -20 -21 -21 -21 -21 -21 -21 -21 -21 -21 -21 -21 -21 -21 -20
-15 -16 -16 -16 -17 -17 -17 -17 -18 -18 -18 -18 -18 -18 -19 -19 -20 -20 -20 -20 -20 -21 -21 -21 -21 -22 -22 -22 -22 -22 -22 -22 -22 -22 -22 -21 -21 -21 -21 -21 -21 -21 -21
-16 -16 -17 -17 -17 -18 -18 -18 -18 -19 -19 -19 -19 -19 -20 -20 -20 -20 -20 -20 -21 -21 -21 -22 -22 -22 -23 -23 -23 -23 -23 -23 -23 -23 -23 -23 -22 -22 -22 -22 -22 -23 -22
-17 -17 -17 -17 -18 -18 -18 -19 -19 -19 -20 -20 -20 -20 -21 -20 -21 -21 -21 -21 -21 -22 -23 -23 -23 -24 -24 -24 -24 -24 -24 -23 -23 -23 -24 -24 -24 -24 -24 -23 -24 -24 -24
-17 -17 -18 -18 -19 -19 -19 -19 -19 -20 -20 -21 -20 -21 -21 -21 -21 -21 -22 -22 -22 -23 -23 -24 -24 -24 -24 -25 -24 -24 -24 -24 -24 -25 -25 -25 -25 -25 -25 -25 -25 -25 -25
-18 -18 -18 -19 -19 -19 -19 -19 -20 -20 -21 -21 -21 -21 -21 -21 -22 -22 -22 -23 -23 -23 -23 -24 -24 -25 -25 -25 -26 -25 -25 -26 -26 -26 -27 -27 -27 -27 -27 -27 -27 -27 -27
-19 -19 -19 -19 -20 -20 -20 -20 -20 -21 -21 -21 -22 -22 -22 -23 -23 -23 -23 -23 -24 -24 -24 -25 -25 -26 -26 -27 -27 -27 -27 -28 -28 -28 -29 -29 -29 -29 -29 -29 -29 -29 -29
-19 -20 -20 -20 -21 -21 -21 -21 -22 -22 -22 -22 -22 -23 -23 -23 -24 -24 -24 -24 -24 -24 -25 -25 -26 -27 -27 -28 -28 -28 -28 -28 -29 -29 -30 -30 -31 -31 -30 -30 -30 -30 -30
-21 -21 -21 -22 -22 -22 -22 -22 -22 -22 -22 -23 -23 -24 -24 -25 -25 -25 -25 -25 -25 -25 -26 -26 -27 -27 -28 -29 -29 -29 -29 -29 -29 -30 -30 -31 -31 -31 -32 -32 -32 -31 -31
-22 -22 -22 -22 -22 -22 -22 -23 -23 -23 -23 -24 -24 -25 -25 -25 -25 -25 -26 -26 -26 -27 -28 -28 -29 -29 -29 -30 -30 -30 -30 -30 -30 -30 -31 -31 -31 -32 -32 -32 -32 -33 -33
-21 -22 -23 -23 -24 -24 -24 -24 -24 -24 -24 -25 -26 -26 -26 -26 -26 -27 -27 -28 -29 -29 -29 -30 -30 -30 -30 -31 -31 -31 -31 -31 -31 -31 -31 -32 -32 -32 -32 -32 -32 -32 -33
-23 -23 -24 -25 -25 -25 -25 -25 -25 -25 -26 -26 -27 -27 -28 -28 -28 -28 -29 -30 -30 -30 -31 -31 -31 -31 -31 -31 -31 -31 -31 -31 -31 -31 -32 -32 -33 -33 -33 -33 -33 -32 -33
-24 -24 -24 -25 -25 -26 -26 -26 -27 -27 -27 -27 -28 -29 -29 -29 -29 -30 -30 -31 -31 -31 -31 -31 -31 -31 -31 -32 -32 -32 -32 -32 -32 -32 -32 -32 -33 -33 -33 -33 -33 -33 -33
-26 -27 -27 -27 -27 -28 -27 -27 -27 -28 -28 -29 -30 -30 -30 -30 -31 -31 -31 -32 -32 -32 -32 -31 -32 -32 -32 -32 -32 -32 -32 -33 -33 -33 -33 -33 -33 -33 -33 -33 -33 -33 -33
-27 -28 -28 -28 -29 -29 -29 -29 -30 -30 -30 -30 -30 -31 -31 -32 -32 -32 -32 -32 -32 -32 -32 -32 -32 -32 -32 -33 -33 -33 -33 -33 -34 -34 -34 -33 -33 -34 -34 -34 -34 -34 -34
-29 -29 -29 -30 -30 -30 -30 -30 -30 -30 -31 -31 -32 -32 -32 -32 -32 -32 -32 -32 -32 -32 -32 -33 -33 -33 -33 -33 -33 -34 -34 -35 -35 -35 -34 -34 -34 -34 -34 -34 -34 -34 -34
-30 -30 -30 -30 -30 -31 -31 -31 -31 -32 -32 -32 -32 -32 -32 -32 -32 -32 -33 -33 -33 -33 -33 -33 -33 -33 -33 -33 -34 -35 -35 -36 -36 -36 -35 -35 -35 -35 -35 -34 -34 -34 -35
Height
5743 5739 5737 5734 5732 5730 5728 5727 5725 5724 5722 5721 5720 5719 5717 5716 5714 5712 5710 5708 5707 5705 5703 5700 5698 5697 5696 5694 5693 5692 5692 5693 5693 5694 5694 5695 5696 5697 5697 5698 5699 5699 5699
5734 5731 5728 5725 5723 5721 5720 5719 5717 5716 5714 5713 5711 5709 5708 5706 5704 5702 5701 5699 5698 5697 5694 5691 5689 5687 5687 5686 5685 5684 5684 5684 5685 5685 5685 5686 5687 5687 5687 5688 5689 5689 5690
5724 5721 5718 5716 5714 5712 5711 5709 5708 5706 5705 5703 5701 5699 5698 5697 5695 5694 5692 5690 5689 5687 5685 5683 5681 5679 5678 5677 5676 5676 5676 5675 5675 5675 5676 5677 5677 5678 5677 5678 5678 5679 5680
5715 5712 5710 5707 5705 5703 5701 5699 5697 5696 5694 5692 5691 5690 5688 5687 5686 5684 5682 5681 5679 5678 5676 5674 5672 5671 5670 5668 5667 5667 5667 5666 5666 5666 5666 5666 5667 5667 5669 5668 5668 5669 5669
5704 5702 5700 5697 5695 5693 5691 5689 5687 5686 5684 5682 5680 5679 5678 5676 5675 5673 5672 5671 5669 5667 5666 5664 5663 5661 5661 5659 5657 5656 5655 5656 5656 5656 5656 5656 5656 5656 5657 5657 5657 5657 5658
5694 5691 5689 5686 5684 5682 5680 5679 5677 5675 5673 5671 5669 5667 5666 5665 5663 5661 5660 5659 5657 5656 5655 5653 5651 5649 5648 5647 5646 5645 5645 5644 5643 5643 5643 5644 5644 5644 5645 5645 5646 5646 5646
5683 5681 5678 5675 5673 5672 5670 5668 5666 5664 5662 5660 5657 5656 5654 5652 5651 5649 5647 5646 5645 5643 5642 5641 5639 5637 5636 5635 5634 5633 5632 5631 5630 5630 5631 5631 5631 5631 5631 5633 5633 5633 5633
5672 5671 5668 5666 5664 5662 5660 5657 5655 5652 5649 5647 5645 5643 5641 5639 5638 5636 5635 5633 5632 5630 5629 5627 5626 5625 5624 5623 5621 5620 5619 5618 5618 5617 5616 5616 5616 5617 5617 5618 5619 5619 5619
5662 5660 5657 5655 5652 5650 5647 5644 5641 5639 5636 5634 5632 5631 5628 5626 5624 5622 5620 5619 5618 5616 5614 5613 5613 5611 5610 5609 5608 5607 5606 5605 5603 5602 5601 5600 5600 5599 5600 5601 5601 5602 5604
5650 5648 5646 5643 5640 5637 5634 5631 5629 5626 5623 5621 5618 5616 5614 5612 5610 5607 5605 5604 5602 5600 5599 5598 5596 5595 5595 5594 5592 5591 5590 5589 5588 5587 5585 5583 5582 5581 5580 5580 5581 5582 5583
5637 5634 5631 5629 5626 5623 5620 5618 5615 5612 5609 5607 5604 5601 5599 5597 5594 5593 5591 5589 5586 5584 5582 5581 5580 5578 5576 5575 5573 5572 5570 5569 5568 5567 5566 5564 5562 5561 5560 5559 5559 5559 5561
5623 5620 5618 5615 5612 5609 5607 5604 5601 5598 5595 5592 5589 5586 5584 5582 5580 5579 5575 5572 5570 5567 5565 5563 5561 5559 5557 5555 5553 5551 5550 5548 5546 5543 5542 5540 5540 5538 5536 5535 5535 5535 5536
5609 5606 5603 5600 5597 5594 5592 5589 5586 5582 5580 5578 5575 5572 5569 5566 5564 5561 5558 5556 5553 5550 5546 5543 5542 5539 5536 5533 5530 5527 5525 5522 5520 5518 5516 5513 5513 5512 5511 5511 5511 5511 5512
5594 5591 5587 5583 5581 5578 5574 5571 5568 5565 5563 5561 5560 5557 5554 5550 5546 5543 5541 5538 5534 5531 5527 5524 5522 5520 5516 5513 5509 5504 5500 5498 5496 5493 5491 5489 5487 5486 5485 5486 5485 5485 5487
5578 5574 5570 5566 5563 5560 5557 5553 5550 5547 5545 5543 5541 5538 5535 5531 5528 5525 5521 5517 5513 5510 5507 5503 5500 5497 5494 5488 5481 5477 5474 5471 5469 5467 5465 5463 5461 5460 5460 5460 5461 5462 5463
5558 5554 5551 5548 5544 5541 5537 5534 5531 5528 5527 5525 5522 5519 5515 5511 5508 5504 5501 5496 5492 5489 5484 5480 5475 5470 5464 5460 5454 5450 5447 5445 5443 5442 5439 5438 5437 5437 5437 5437 5438 5440 5442
5538 5535 5532 5529 5526 5523 5519 5516 5513 5511 5508 5505 5502 5499 5496 5492 5488 5483 5479 5473 5468 5464 5460 5455 5451 5446 5441 5434 5429 5423 5420 5420 5419 5417 5415 5413 5413 5413 5414 5415 5416 5418 5420
5520 5518 5515 5512 5508 5505 5502 5498 5494 5491 5489 5486 5484 5481 5475 5469 5463 5458 5453 5450 5446 5441 5436 5431 5426 5422 5416 5409 5404 5400 5396 5397 5395 5393 5392 5390 5390 5389 5390 5392 5394 5396 5398
5503 5500 5497 5493 5490 5486 5481 5479 5477 5474 5472 5468 5462 5456 5450 5446 5442 5437 5432 5427 5423 5417 5412 5406 5401 5397 5393 5387 5383 5379 5378 5377 5375 5372 5370 5367 5367 5367 5365 5366 5371 5374 5377
5484 5481 5477 5474 5471 5468 5465 5461 5458 5454 5450 5444 5439 5433 5428 5425 5420 5416 5409 5403 5398 5394 5388 5385 5381 5377 5374 5369 5364 5361 5360 5359 5357 5353 5350 5347 5346 5345 5344 5343 5346 5351 5357
5467 5464 5460 5457 5453 5448 5443 5439 5436 5433 5428 5424 5417 5412 5407 5403 5397 5393 5387 5381 5376 5372 5369 5366 5363 5358 5353 5350 5346 5343 5340 5339 5337 5335 5333 5329 5326 5324 5325 5324 5325 5330 5331
5450 5446 5442 5437 5432 5430 5424 5419 5416 5412 5407 5402 5396 5391 5386 5380 5375 5371 5366 5361 5356 5353 5349 5346 5343 5338 5333 5329 5327 5324 5321 5318 5315 5315 5314 5311 5308 5305 5306 5307 5308 5309 5310
5434 5430 5426 5420 5413 5409 5405 5400 5396 5392 5388 5382 5376 5370 5363 5358 5354 5350 5346 5342 5337 5332 5329 5325 5322 5318 5313 5309 5305 5302 5300 5297 5294 5293 5293 5292 5289 5288 5289 5290 5291 5291 5292
5416 5411 5405 5400 5393 5388 5383 5380 5376 5373 5368 5361 5354 5347 5344 5339 5334 5329 5325 5322 5316 5311 5307 5303 5300 5296 5292 5288 5284 5280 5276 5273 5272 5271 5270 5271 5272 5272 5272 5274 5275 5275 5276
5396 5392 5386 5381 5375 5370 5364 5358 5356 5352 5346 5339 5334 5329 5325 5319 5315 5310 5305 5299 5293 5288 5284 5280 5275 5271 5268 5264 5258 5254 5252 5249 5248 5247 5250 5251 5252 5254 5255 5257 5259 5259 5260
5380 5375 5370 5363 5357 5351 5347 5339 5333 5328 5325 5320 5315 5310 5305 5299 5294 5289 5284 5275 5270 5265 5260 5254 5248 5244 5240 5236 5232 5228 5225 5225 5225 5223 5228 5232 5234 5237 5239 5241 5242 5244 5245
Wind_Speed
36 37 36 35 32 30 31 32 31 33 35 35 36 34 32 31 33 36 37 37 40 43 46 45 37 34 31 31 32 35 36 34 32 32 34 36 38 40 40 41 41 40 39
37 36 37 37 36 34 34 34 36 36 36 36 37 37 35 33 35 36 36 38 42 44 43 43 40 37 33 32 29 32 37 37 36 36 36 37 38 39 39 40 42 42 41
39 37 37 37 37 36 35 35 36 37 38 40 41 39 36 35 35 36 37 40 43 44 44 41 42 37 33 32 31 30 35 39 39 39 41 42 43 43 40 38 40 42 43
40 39 37 37 37 37 37 37 38 40 41 40 38 38 37 37 36 37 39 41 43 45 44 40 43 41 38 34 33 34 33 35 40 41 43 44 43 46 43 42 41 42 42
43 36 32 34 37 38 38 38 38 40 38 37 38 39 39 37 39 40 42 43 44 45 45 41 44 44 40 36 35 36 37 36 36 42 45 46 46 44 43 47 49 47 45
39 36 35 35 35 36 38 38 39 38 40 42 42 41 39 39 42 43 44 45 45 45 45 42 44 44 43 40 40 41 40 41 41 40 43 45 48 50 49 49 50 53 53
38 37 36 34 34 36 38 42 44 44 43 43 40 40 42 45 47 46 46 46 46 48 42 43 45 43 42 44 44 43 45 47 46 45 45 45 47 50 51 52 54 53 55
40 40 39 38 40 43 43 43 43 45 45 47 45 43 48 50 47 48 47 48 49 46 43 46 45 45 46 47 48 49 49 48 50 50 50 51 51 51 52 53 56 56 56
42 42 43 44 46 45 45 45 44 43 43 42 46 56 53 49 50 49 50 49 49 48 47 47 48 50 49 48 49 51 53 56 58 57 57 59 59 59 60 60 61 62 63
45 46 46 46 46 46 46 46 47 48 50 52 52 56 57 55 54 52 52 53 51 49 50 49 48 48 50 52 54 55 57 59 61 62 64 66 66 66 67 66 66 66 67
49 48 48 48 49 49 48 50 51 54 54 57 55 56 59 53 50 51 52 58 56 52 51 53 55 54 55 56 58 62 63 66 66 67 68 69 70 72 71 71 71 71 71
50 51 53 55 55 53 50 56 56 56 58 55 57 58 56 53 55 59 66 64 61 61 61 59 62 62 61 63 65 66 68 70 73 74 74 73 72 73 74 74 74 73 72
53 56 59 60 58 57 55 58 61 59 58 56 55 57 56 54 62 62 62 65 65 62 60 61 64 64 63 68 70 75 76 78 80 79 76 74 73 72 73 76 74 73 73
58 62 62 61 59 60 60 62 62 61 61 60 60 61 61 64 64 65 60 61 66 66 68 67 66 66 69 72 76 77 78 82 81 80 77 74 73 72 73 74 75 76 74
64 66 64 63 63 63 63 63 63 62 61 59 61 62 62 65 63 62 64 66 71 76 74 73 72 70 72 74 75 78 78 77 79 78 76 74 74 73 72 72 71 71 69
68 66 66 65 64 63 62 62 61 60 59 61 63 63 62 62 69 70 74 72 75 77 76 74 74 75 74 74 74 75 74 74 75 76 75 74 73 71 70 71 71 71 69
67 64 63 64 63 61 61 61 60 59 63 66 64 60 64 74 75 75 76 78 81 81 83 86 83 75 74 73 72 74 75 76 75 75 73 73 74 74 73 73 74 72 71
60 58 60 59 59 60 61 64 63 62 61 60 66 74 75 73 75 76 77 80 81 81 80 80 79 76 74 71 70 70 69 68 67 67 67 69 71 74 76 77 77 75 72
58 59 63 58 62 58 59 59 56 58 64 73 71 71 74 75 76 77 78 81 81 78 74 72 71 69 65 60 58 58 60 59 58 59 60 62 63 66 70 72 71 69 68
62 60 55 52 53 57 59 63 68 72 74 74 74 75 75 76 77 76 74 73 74 71 69 64 59 57 55 57 56 58 59 57 57 57 57 58 59 59 61 64 67 69 69
55 54 52 53 54 57 63 65 69 73 75 75 73 72 71 71 71 73 72 70 66 59 56 55 58 58 58 59 59 59 59 58 57 55 55 56 57 57 56 58 59 57 62
54 56 62 63 67 67 67 68 67 68 68 70 68 67 69 70 71 68 63 59 56 55 56 59 61 61 61 61 61 62 62 60 59 56 55 55 55 55 55 53 52 54 54
52 55 60 61 59 60 63 64 68 68 66 65 66 69 67 65 62 58 58 57 58 59 62 64 64 64 64 64 65 65 64 63 62 60 57 55 54 53 51 49 49 51 51
56 57 55 57 59 62 63 63 62 64 66 65 65 63 60 59 59 60 61 63 64 66 68 68 68 68 67 68 69 69 69 67 64 61 59 56 53 51 50 48 48 49 48
53 53 55 57 60 61 62 64 66 66 64 62 60 58 59 60 61 64 66 68 69 71 71 71 72 73 73 74 75 73 70 67 64 62 58 56 52 49 49 48 46 46 46
52 53 56 60 63 65 66 65 63 62 61 60 60 62 63 65 68 69 70 71 73 73 75 76 77 77 77 74 71 69 67 64 62 62 58 53 51 48 46 45 44 43 44
Wind_Direction
297 295 296 296 295 289 285 283 282 281 281 282 283 283 286 289 290 290 293 296 300 298 302 308 304 298 294 284 279 279 278 278 277 274 270 270 269 271 271 269 267 264 261
295 293 292 290 293 293 288 285 281 280 281 283 283 284 287 290 289 289 292 295 297 299 301 304 302 301 294 286 281 275 273 271 273 274 274 272 272 274 273 271 266 264 265
294 291 287 286 288 289 288 284 282 282 282 283 283 283 286 289 290 290 290 292 294 296 297 300 298 298 293 289 281 281 270 269 267 267 268 270 271 272 273 271 269 266 264
292 289 286 284 284 287 286 283 280 279 282 283 283 284 288 290 289 288 289 290 292 293 295 295 295 293 293 291 283 279 278 270 266 265 263 263 265 270 271 272 270 267 266
296 292 283 279 280 282 280 279 279 282 283 285 285 286 288 288 287 285 285 287 288 288 291 292 294 291 291 292 288 282 277 275 270 264 264 265 263 263 265 270 272 272 269
293 288 283 278 272 271 274 278 281 280 282 285 287 285 285 287 285 282 283 283 285 285 284 289 291 289 288 286 284 284 283 279 274 268 264 263 262 263 263 263 265 268 271
289 287 285 279 269 269 276 281 282 281 283 288 285 282 283 286 284 281 281 280 281 280 279 285 285 283 285 288 288 286 284 281 279 276 271 266 263 262 262 262 263 264 264
290 289 286 281 281 284 288 288 288 287 282 276 279 279 281 283 282 284 280 278 278 275 278 282 280 281 286 288 289 288 287 285 282 279 276 272 268 264 261 259 258 260 264
288 286 286 288 291 291 292 289 289 288 288 285 281 280 287 282 286 283 280 278 274 275 279 279 278 281 284 286 287 287 288 288 286 283 280 278 276 273 269 264 259 257 258
286 285 286 288 288 289 288 286 285 287 289 288 283 279 281 283 284 281 277 271 272 273 274 276 276 280 283 285 287 287 288 289 286 284 283 282 279 277 274 272 269 266 264
287 287 288 290 289 287 286 285 285 286 287 288 286 281 285 284 281 276 267 275 277 275 275 278 284 287 286 287 288 290 293 292 291 289 287 282 280 279 276 273 270 269 267
286 287 290 290 287 285 281 283 284 283 285 282 280 284 282 278 281 281 282 285 280 275 274 281 286 288 287 289 293 296 294 293 291 290 288 285 280 276 275 272 270 269 267
283 286 288 288 284 281 279 279 282 283 280 276 275 279 281 272 277 285 278 284 276 278 284 283 287 290 291 290 285 291 296 299 296 292 289 286 282 277 273 270 269 267 267
282 287 288 286 282 281 280 279 282 281 277 278 271 271 272 279 281 281 276 272 275 280 282 288 290 289 286 287 285 292 296 296 292 289 285 281 275 271 268 266 265 265 263
284 286 285 282 281 279 278 278 278 276 276 271 276 275 277 278 276 273 273 278 279 284 286 286 288 289 289 289 291 294 293 290 288 285 279 274 270 268 266 265 265 264 265
283 283 281 279 277 277 278 278 276 273 271 270 271 271 270 267 283 286 284 281 281 283 288 292 295 296 294 290 289 288 285 283 281 278 276 272 270 268 267 267 268 268 268
281 279 277 276 277 277 277 277 274 270 270 265 271 268 270 286 288 287 285 288 293 297 299 299 298 293 288 287 286 286 285 283 279 277 274 271 269 267 268 268 268 269 268
278 276 272 274 278 279 273 270 267 267 268 269 275 281 279 287 292 295 296 296 296 297 295 294 292 289 288 287 286 284 284 282 280 277 275 272 269 268 266 266 266 268 268
279 271 267 268 274 269 269 270 270 270 270 278 281 289 295 295 296 296 296 295 294 293 289 288 287 285 284 283 284 285 284 283 282 281 278 275 272 270 267 266 264 261 261
266 265 266 265 263 265 270 273 278 283 285 291 295 297 296 295 295 293 292 290 289 288 287 285 285 284 286 286 287 286 285 285 284 283 282 279 276 272 269 268 265 262 260
265 266 263 271 280 284 283 283 285 289 295 297 296 294 293 291 291 290 289 289 285 284 284 286 287 289 289 288 287 286 287 287 284 282 281 280 277 273 271 269 267 266 262
267 271 276 286 289 294 296 297 296 295 295 295 293 293 292 290 289 288 285 283 284 287 290 290 291 290 289 287 286 286 286 285 284 282 280 279 276 272 270 269 269 266 263
282 285 293 294 293 293 293 293 293 292 290 287 288 294 292 289 287 285 285 286 289 292 292 292 291 290 288 287 286 285 284 283 282 281 278 275 274 271 270 269 268 265 264
287 290 291 292 294 295 294 292 290 288 289 289 290 292 288 287 288 288 288 290 292 292 291 291 290 288 287 286 285 284 283 280 278 276 274 273 270 268 266 266 267 267 265
292 295 297 296 294 294 293 291 290 289 289 288 286 285 288 289 290 290 291 292 292 292 291 290 288 287 287 286 284 281 278 275 273 271 270 268 267 265 263 264 265 266 265
295 294 294 295 294 292 291 290 289 289 288 286 287 289 291 291 292 292 292 292 292 291 290 290 289 288 288 286 282 279 276 272 269 267 266 264 264 262 260 261 265 266 262